Location: *
(49.4547°N, 7.9131°E)
Time: 04:59:47
(UTC+00:00)

Cosmos 2297 Rocket - Pass Details

Date: 22 September 2019
Orbit: 841 x 842 km, 71.0° (Epoch: 22 October)

Event Time Altitude Azimuth Distance (km) Brightness Sun altitude
Rises 18:12:43 0° 179° (S) 3,384 5.2 -8.2°
Reaches altitude 10° 18:15:20 10° 170° (S) 2,454 4.4 -8.6°
Maximum altitude 18:20:22 35° 107° (ESE) 1,333 2.7 -9.4°
Drops below altitude 10° 18:25:27 10° 43° (NE) 2,469 4.3 -10.2°
Sets 18:28:05 0° 35° (NE) 3,409 5.1 -10.6°
